Location: Assche-ter-Heiden
(50.9174°N, 4.1574°E)
Time: 15:52:20
(UTC+00:00)

Cosmos 1980 Rocket - Pass Details

Date: 20 January 2020
Orbit: 831 x 848 km, 71.0° (Epoch: 26 February)

Event Time Altitude Azimuth Distance (km) Brightness Sun altitude
Rises 06:31:19 0° 233° (SW) 3,403 5.0 -10.0°
Reaches altitude 10° 06:33:55 10° 241° (WSW) 2,470 4.3 -9.6°
Maximum altitude 06:39:15 41° 311° (NW) 1,221 2.6 -8.8°
Drops below altitude 10° 06:44:35 10° 21° (NNE) 2,473 4.6 -8.0°
Sets 06:47:12 0° 29° (NNE) 3,409 5.4 -7.6°
